Regional Weather Roundup
Issued by NWS

Home | Current Version | Previous Version | Text Only | Print | Product List | Glossary On
Versions: 1 2 3 4 5 6 7 8 9 10 11 12 13 14 15 16 17 18 19 20 21 22 23 24 25 26 27 28 29 30 31 32 33 34 35 36 37 38 39 40 41 42 43 44 45 46 47 48 49 50
000
ASUS43 KDTX 291910
RWRMI
MICHIGAN HOURLY REGIONAL WEATHER ROUNDUP
NATIONAL WEATHER SERVICE DETROIT/PONTIAC MI
300 PM EDT FRI MAY 29 2015

NOTE: "FAIR" INDICATES FEW OR NO CLOUDS BELOW 12,000 FEET WITH NO
SIGNIFICANT WEATHER AND/OR OBSTRUCTION TO VISIBILITY.

MIZ047>049-052>055-059>063-066>070-074>076-081>083-292000-
SOUTHEAST LOWER MICHIGAN

CITY           SKY/WX    TMP DP  RH WIND       PRES   REMARKS
ADRIAN         PTSUNNY   79  64  60 S13       30.08F
ALMA           MOSUNNY   83  62  47 S12G21    30.02F
ANN ARBOR      PTSUNNY   78  68  71 S8        30.08F
BAD AXE        PTSUNNY   83  61  48 S14G21    30.05F
CARO           PTSUNNY   82  65  55 S15G23    30.04F
DETROIT CITY   CLOUDY    73  68  84 S7        30.10F
DETROIT        CLOUDY    77  68  73 SE9       30.09F
FLINT          MOSUNNY   82  62  50 S13       30.06F
GROSSE ILE     PTSUNNY   72  66  83 S6        30.09F
HILLSDALE      MOSUNNY   82  65  56 S10G16    30.07F
HOWELL         MOSUNNY   80  64  56 SE13      30.06F

CITY           SKY/WX    TMP DP  RH WIND       PRES   REMARKS
JACKSON        PTSUNNY   82  64  54 SW14      30.05F
LAMBERTVILLE   CLOUDY    81  64  57 S9G16     30.09F
LANSING        MOSUNNY   83  64  52 S14       30.04F
LAPEER         CLOUDY    78  64  61 SW9       30.08F
MASON          PTSUNNY   78  65  64 S12G18    30.05F
MONROE         MOSUNNY   75  70  83 SE6       30.07F
MT. CLEMENS    PTSUNNY   72  68  88 S6        30.09F
PONTIAC        PTSUNNY   77  65  66 SE13      30.07F
PORT HOPE        N/A     84  62  47 S12G22    30.02F
PORT HURON     RAIN      70  66  88 CALM      30.12F
TRI CITIES     MOSUNNY   85  62  46 SW12      30.02F
MIDLAND        FAIR      84  62  46 S10       30.01F
TROY           CLOUDY    74  70  86 S8        30.11F
SAGINAW HB     MOSUNNY   82  61  47 S14       30.02F
$$
MIZ043>046-050>051-056>058-064>065-071>073-077>080-292000-
SOUTHWEST LOWER MICHIGAN

CITY           SKY/WX    TMP DP  RH WIND       PRES   REMARKS
BATTLE CREEK   MOSUNNY   84  63  49 SW13G20   30.03F
BENTON HARBOR  RAIN      72  67  84 SW12      30.02R
BIG RAPIDS     PTSUNNY   80  62  54 W13       29.99F
COLDWATER      PTSUNNY   80  62  53 S10G16    30.05F
FREMONT        FAIR      80  64  58 SW10      29.99F HAZE
HOLLAND        PTSUNNY   81  65  58 W8        30.00F
GRAND RAPIDS   PTSUNNY   81  64  56 W6        30.01F
IONIA          PTSUNNY   84  59  43 SW14      30.02F
KALAMAZOO      MOSUNNY   82  62  50 S14G23    30.02F
LUDINGTON      MOSUNNY   76  67  74 W7        29.97F
MARSHALL       MOSUNNY   83  63  50 S7G16     30.03F
MOUNT PLEASANT MOSUNNY   83  62  49 S8        30.01F
MUSKEGON       CLOUDY    80  64  58 S13       30.00F
SOUTH HAVEN    HVY RAIN  78  65  62 W3        30.00S
$$
MIZ016>042-292000-
NORTHERN LOWER MICHIGAN

CITY           SKY/WX    TMP DP  RH WIND       PRES   REMARKS
ALPENA         PTSUNNY   82  59  45 SW14      30.00F
BEAVER ISLAND  CLOUDY    68  62  82 S7        29.96F
BELLAIRE       CLOUDY    69  65  88 SE5       29.99F
CADILLAC       LGT RAIN  70  66  89 W3        30.02F
CHARLEVOIX     CLOUDY    72  65  80 S9        30.01F
FRANKFORT      PTSUNNY   77  61  56 S12G18    29.96F
GAYLORD        TSTM      64  64 100 SW6       30.05F FOG
GRAYLING       CLOUDY    70  61  71 W17G26    30.06R
HARBOR SPRINGS CLOUDY    63  58  83 CALM      30.00S
HOUGHTON LAKE  PTSUNNY   81  61  50 SW9       30.02F
MANISTEE       MOSUNNY   75  66  73 S10       29.97F
OSCODA         MOSUNNY   83  63  51 SW16G25   30.02F
PELLSTON       CLOUDY    71  61  70 S5        29.99F
ROGERS CITY    CLOUDY    68  60  74 NE8       30.00S
TRAVERSE CITY  CLOUDY    72  66  81 VRB6      29.96F
$$
MIZ007>008-015-292000-
EASTERN UPPER MICHIGAN

CITY           SKY/WX    TMP DP  RH WIND       PRES   REMARKS
KINROSS        CLOUDY    64  64 100 S7        29.98F
MACKINAC ISLAN CLOUDY    62  60  93 SW3       29.98F
NEWBERRY       CLOUDY    64  60  86 S10G17    29.94F
S. S. MARIE    LGT RAIN  66  61  84 SW8       29.99F
MUNISING         N/A     75  62  64 S10G24    29.86F
$$
MIZ004>006-011>014-085-292000-
CENTRAL UPPER MICHIGAN

CITY           SKY/WX    TMP DP  RH WIND       PRES   REMARKS
MANISTIQUE     CLOUDY    53  50  89 S8        29.95S FOG
ESCANABA       CLOUDY    61  54  77 S7        29.91F
MENOMINEE      CLOUDY    73  63  68 S13       29.90F
SAWYER-GWINN   PTSUNNY   75  61  60 SW15G24   29.87F
$$
MIZ001>003-009>011-084-292000-
WESTERN UPPER MICHIGAN

CITY           SKY/WX    TMP DP  RH WIND       PRES   REMARKS
IRON MOUNTAIN  CLOUDY    76  61  59 S9        29.86F
HOUGHTON       LGT RAIN  64  62  93 W13       29.85F FOG
COPPER HARBOR    N/A     62  58  86 W7        29.84F
IRONWOOD       CLOUDY    66  64  94 W9        29.85F
$$

ABBREVIATIONS USED IN REMARKS
   TC - TEMPERATURE IN CELSIUS
  WCI - WIND CHILL INDEX
   HX - HEAT INDEX
  VSB - VISIBILITY




USA.gov is the U.S. government's official web portal to all federal, state and local government web resources and services.